Overview Statistics Trail Chart Weather Telemetry Raw packets
 

This is the latest recevied weather packets stored in our database for station/object IZ5MJO-13. If no packets are shown the sender has not sent any weather packets the latest 10 day(s).

<< 1 2 3 4 5 6 >>
Time Temp. Humidity Pressure Rain* Wind** Luminosity Snow
1788567626 22.78° C 51% 1008.8 hPa - - - -
1788566726 22.78° C 50% 1009 hPa - - - -
1788565832 22.78° C 51% 1009.2 hPa - - - -
1788564932 22.78° C 51% 1009.1 hPa - - - -
1788564663 27.22° C 39% 1008.7 hPa - - - -
1788564032 22.78° C 48% 1009.2 hPa - - - -
1788563131 22.78° C 49% 1009.2 hPa - - - -
1788562231 23.33° C 45% 1009.2 hPa - - - -
1788561330 22.78° C 46% 1009.2 hPa - - - -
1788560430 23.33° C 44% 1009.3 hPa - - - -
1788559530 23.33° C 43% 1009.3 hPa - - - -
1788558629 23.89° C 45% 1009.3 hPa - - - -
1788557729 23.89° C 47% 1009.2 hPa - - - -
1788556828 24.44° C 45% 1009.3 hPa - - - -
1788555928 25° C 44% 1009.5 hPa - - - -
1788555028 25.56° C 42% 1009.5 hPa - - - -
1788554127 25.56° C 42% 1009.4 hPa - - - -
1788553227 25.56° C 41% 1009.3 hPa - - - -
1788552327 26.11° C 42% 1009.4 hPa - - - -
1788551427 26.11° C 39% 1009.3 hPa - - - -
1788550526 26.11° C 39% 1009.3 hPa - - - -
1788549626 26.11° C 38% 1009.3 hPa - - - -
1788548725 26.11° C 38% 1009.3 hPa - - - -
1788547825 26.67° C 41% 1009.1 hPa - - - -
1788546925 26.67° C 39% 1009 hPa - - - -

* Rain since midnight (hover to see other rain measurements)
** Current wind speed in m/s (hover to see current wind gust speed)